SCP
0 0 0 0 -0 -0 -0 -0 -0 -0 -0 -0 -0 -0 -0 -0 -0 -0 -0 -0 0 0 0 0 0 -0 -0 -0 -0 -0 -0 -0 0 0 0 0 0 0 0 0 0 0 0
-0 0 -0 0 0 -0 -0 -0 -0 -0 -0 -0 -0 -0 -0 -0 -0 -0 -0 0 0 0 0 0 0 -0 -0 -0 -0 -0 -0 -0 -0 -0 0 0 0 0 0 0 0 0 0
-0 0 -0 -0 0 -0 -0 -0 -0 -0 -0 -0 -0 -0 -0 -0 -0 0 0 0 0 0 0 0 0 0 0 -0 0 0 0 0 0 -0 0 0 0 0 0 0 0 0 0
-0 -0 -0 -0 -0 -0 -0 -0 -0 -0 -0 -0 -0 -0 -0 -0 0 0 0 0 0 0 0 0 0 0 0 0 0 0 0 0 0 0 0 0 0 0 0 0 0 0 0
-0 -0 -0 -0 -0 -0 -0 -0 -0 -0 -0 -0 -0 -0 -0 0 0 0 0 0 0 0 0 0 0 0 0 0 0 0 0 0 0 0 -0 -0 0 0 0 0 0 0 0
0 -0 -0 -0 -0 -0 -1 -0 -1 -1 -0 -0 -0 -0 0 0 0 0 0 0 0 0 0 0 0 0 0 0 0 0 0 0 0 0 0 -0 0 0 0 0 0 0 0
0 0 0 -0 -0 -0 -0 -1 -1 -1 -0 -0 -0 -0 0 0 0 0 0 0 0 0 0 0 0 0 0 0 0 0 0 0 0 0 0 0 0 0 0 0 0 0 0
0 0 0 0 0 -0 -0 -0 -0 -1 -0 -0 -0 0 0 0 0 0 0 0 0 0 0 0 0 0 0 0 0 0 0 0 0 0 0 0 0 0 0 0 0 0 0
0 0 0 1 0 -0 0 -0 -0 -0 -0 -0 -0 0 0 0 0 0 0 0 0 0 0 0 0 0 0 0 0 0 0 0 0 0 0 0 0 0 0 0 0 0 0
0 0 0 0 0 -0 -0 0 -0 -0 -0 -0 -0 0 -0 0 0 0 0 0 0 0 0 0 0 0 0 0 0 0 0 0 0 0 0 0 0 0 0 0 0 0 0
0 0 0 0 0 -0 -0 -0 0 -0 -0 -0 -0 -0 0 1 1 0 0 0 0 0 0 0 0 0 0 0 0 0 0 0 0 0 0 0 0 0 0 0 0 0 0
0 0 0 0 0 0 -0 -0 0 0 0 0 0 0 0 0 0 0 0 0 1 0 0 0 1 1 0 0 0 0 0 0 0 0 0 -0 0 0 0 0 0 0 0
0 0 0 0 0 0 0 0 0 0 0 0 0 0 0 0 0 0 0 0 0 0 0 0 0 1 0 0 0 0 0 0 0 0 0 0 0 0 0 0 0 0 0
0 0 0 0 0 0 0 0 0 0 -0 0 0 0 0 0 0 0 0 0 0 0 0 0 0 0 0 0 0 0 0 0 0 0 0 0 0 0 0 0 0 0 0
1 1 0 0 0 0 0 0 0 0 0 -0 0 0 0 0 0 0 0 0 0 0 0 0 0 0 0 0 0 0 0 0 0 0 0 0 0 0 0 0 0 0 0
1 1 1 0 0 0 0 0 0 0 0 0 0 0 0 0 0 0 0 0 0 0 0 0 0 0 0 0 0 0 0 0 0 0 0 0 0 0 0 0 0 0 0
1 2 2 1 0 0 0 0 0 0 0 0 0 0 0 0 0 0 0 0 0 0 0 0 0 0 0 0 0 0 0 0 0 0 0 0 0 0 0 0 0 0 0
0 0 2 2 0 0 0 0 0 0 0 0 0 0 0 0 0 0 0 0 0 0 0 0 0 0 0 0 0 0 0 0 0 0 0 0 0 1 0 0 0 0 0
0 0 0 0 0 0 0 0 0 0 0 0 0 0 0 0 0 0 0 0 0 0 0 0 0 0 0 0 0 0 0 0 0 0 0 0 0 0 0 0 0 0 0
0 0 0 0 0 0 0 0 0 1 0 0 0 0 0 0 0 0 0 0 0 0 0 0 0 0 0 0 0 0 0 0 0 0 0 0 0 0 0 0 0 0 0
0 0 0 0 0 1 0 0 1 2 1 1 1 1 1 0 0 0 0 0 0 0 0 0 0 0 0 0 0 0 0 0 0 0 0 0 0 0 0 0 0 0 0
0 0 0 0 0 0 1 2 2 2 2 2 3 2 1 1 1 0 0 0 0 0 0 0 0 0 0 0 0 0 0 0 0 0 0 0 0 0 0 0 0 0 0
0 0 0 0 0 0 1 3 0 0 0 2 2 2 1 1 2 1 0 0 0 0 0 0 0 0 0 0 0 0 0 0 0 0 0 0 0 0 0 0 0 0 0
0 0 0 0 0 0 0 2 2 2 2 1 3 2 1 1 1 2 1 0 0 0 0 0 0 0 0 0 0 0 0 0 0 0 0 0 0 0 0 0 0 0 0
0 0 0 0 0 0 0 1 2 2 1 0 0 0 0 0 0 1 1 0 0 0 0 0 0 0 0 0 0 0 0 0 0 0 0 0 0 0 0 0 0 0 0
0 0 0 0 0 0 0 0 0 1 0 0 0 0 0 0 0 1 1 0 0 0 0 0 0 0 0 0 0 0 0 0 0 0 0 0 0 0 0 0 0 0 0
Wind_Speed_500mb
67 62 58 54 47 48 50 50 48 47 45 42 40 38 35 32 30 27 25 23 21 20 19 17 15 13 10 7 4 3 3 4 4 5 6 6 6 6 7 4 6 6 9
80 72 65 60 54 51 54 56 54 51 48 46 45 43 41 38 35 34 31 28 25 23 24 22 21 20 18 15 11 8 5 2 2 3 5 5 9 9 3 1 3 3 5
83 78 71 67 62 57 56 57 56 54 51 48 46 43 42 40 37 34 32 29 27 25 24 22 21 21 20 18 15 12 10 8 8 9 7 11 9 9 5 4 6 2 1
89 83 76 72 68 62 58 58 56 55 54 52 47 44 41 38 34 32 30 27 25 22 21 20 20 19 18 17 15 14 12 14 15 13 10 7 3 3 6 8 7 6 1
92 88 78 76 71 64 59 56 54 54 52 50 47 44 39 35 32 29 27 25 22 19 17 16 17 16 16 15 13 13 14 17 11 9 10 12 11 11 10 12 11 7 3
92 88 82 78 74 67 61 57 53 51 50 48 45 41 37 33 29 27 24 22 19 16 13 13 14 13 12 11 10 11 14 15 11 6 8 6 9 10 13 13 14 10 9
96 89 82 78 75 71 63 58 53 48 47 45 43 39 35 31 28 26 23 20 18 15 13 10 7 7 7 8 7 7 9 12 13 10 8 2 1 7 5 8 10 10 9
93 87 83 77 75 72 66 59 54 49 44 41 40 37 34 32 29 28 25 23 21 19 17 14 13 10 9 8 7 6 7 11 16 18 18 11 5 6 4 7 10 14 10
91 87 82 78 76 73 66 59 55 50 45 42 40 38 37 35 34 32 30 28 27 26 24 22 20 17 16 15 12 9 8 10 16 24 24 18 11 7 8 11 12 16 16
94 86 81 80 78 76 70 62 57 52 45 43 41 41 39 39 38 38 38 36 33 32 31 29 27 24 24 24 21 15 12 14 15 20 20 22 20 12 8 12 13 17 16
90 84 79 79 77 74 70 65 59 54 48 45 44 43 44 45 45 46 44 41 40 39 38 36 35 32 32 32 31 23 20 16 18 21 16 11 18 18 12 13 15 16 18
84 82 79 77 76 73 70 68 64 58 54 51 49 48 49 48 49 49 48 46 46 45 45 44 43 41 41 39 39 32 29 24 25 20 16 15 20 19 19 18 16 17 19
89 84 85 80 76 73 71 69 65 63 57 53 51 52 53 51 54 55 55 53 52 51 53 51 51 51 48 46 44 41 37 32 29 24 22 19 19 24 25 22 18 18 19
80 86 83 82 78 76 74 70 66 63 61 57 55 57 58 57 59 59 59 56 56 56 57 55 57 57 54 52 51 48 47 40 36 30 28 26 24 28 29 23 21 19 20
72 79 81 85 82 80 74 68 67 64 61 63 60 62 63 63 63 59 60 60 59 58 60 57 59 62 60 57 57 54 54 48 42 38 33 31 29 29 25 22 22 20 19
64 69 76 78 75 69 67 60 61 61 59 60 66 67 66 67 64 61 59 58 57 56 55 57 56 60 59 57 58 57 58 56 49 39 34 30 32 28 27 27 28 26 22
63 66 68 68 69 63 55 50 62 51 51 51 51 62 58 58 60 59 56 52 47 45 45 49 50 54 55 52 55 54 54 55 51 40 40 32 31 36 33 33 38 36 30
59 58 64 68 68 73 77 55 52 67 69 51 49 54 50 54 57 56 57 54 47 43 43 46 45 48 49 46 46 47 47 46 45 36 37 32 31 35 37 41 40 40 33
69 59 62 71 77 85 79 80 80 82 71 57 61 61 57 54 56 57 61 57 51 47 48 48 47 44 48 42 38 41 39 38 35 30 35 32 36 36 36 42 48 40 34
50 64 65 74 76 85 86 75 76 77 71 75 71 72 65 56 56 57 61 60 58 55 55 54 50 47 49 40 36 42 40 35 32 32 30 38 37 42 33 36 39 34 33
58 62 60 77 78 78 86 87 92 85 79 84 80 83 68 57 55 57 63 60 62 62 59 58 54 54 52 39 41 45 43 42 38 36 34 36 38 35 36 37 37 35 32
54 56 64 63 66 74 99 94 100 97 90 91 92 85 69 59 53 60 64 64 63 63 63 63 59 59 57 42 45 47 43 41 45 39 40 43 45 43 44 42 41 38 33
39 59 75 78 70 72 80 88 114 110 105 106 100 84 71 59 60 64 66 64 65 62 58 56 56 59 58 41 42 42 17 24 25 32 35 35 38 31 31 38 44 37 34
44 51 62 77 83 73 68 77 85 115 123 108 87 71 59 54 57 60 63 62 60 59 55 46 47 51 48 46 43 53 58 40 17 15 14 15 24 33 26 32 35 33 35
47 44 53 59 75 78 73 64 81 107 115 95 67 57 54 59 57 57 58 60 59 52 48 45 43 43 41 42 46 49 56 59 51 45 40 31 27 23 24 28 34 39 41
56 50 45 54 63 66 72 70 72 87 100 81 67 58 57 60 58 52 55 58 55 43 42 41 36 37 37 38 45 45 46 45 49 47 44 44 30 25 25 32 36 38 35
Wind_Direction_500mb
172 163 159 155 155 147 143 144 144 142 143 146 147 148 148 143 139 139 137 136 135 128 120 119 119 115 115 122 140 160 204 239 229 224 227 205 119 78 55 39 44 42 86
166 164 162 159 156 150 145 142 141 141 142 141 141 141 141 139 138 135 133 130 124 120 113 110 108 105 105 108 114 119 130 164 165 147 177 158 134 122 106 32 346 3 94
167 165 164 164 160 157 150 147 144 145 144 144 143 143 143 142 141 137 135 132 127 123 118 116 113 107 105 106 107 112 116 121 123 130 132 136 125 113 96 346 354 292 46
167 166 167 167 165 162 158 154 153 152 151 150 151 151 150 149 148 146 143 140 139 136 131 128 120 115 112 111 112 111 113 126 130 128 117 138 85 86 43 5 329 353 217
171 167 167 170 170 167 165 162 161 160 160 158 158 160 160 160 160 159 159 157 154 149 143 140 131 130 127 126 126 130 138 144 146 132 115 121 96 50 34 5 344 302 269
173 170 167 172 172 173 172 170 169 169 170 168 169 171 172 173 175 177 177 175 171 170 166 164 149 143 136 137 143 143 151 162 175 159 136 123 109 69 46 30 11 336 260
175 172 171 173 175 177 178 177 177 177 180 178 181 184 186 190 194 197 198 197 194 195 197 199 188 167 163 167 170 159 161 192 201 216 229 225 130 104 50 350 359 349 308
175 174 174 176 179 180 183 183 185 185 187 191 192 195 200 206 212 217 218 220 220 221 221 225 228 224 226 224 210 192 195 212 232 234 235 258 259 220 221 287 323 335 318
179 179 177 179 182 183 188 189 191 193 195 199 205 208 212 217 222 227 233 233 235 236 237 236 241 241 245 248 242 237 234 232 236 247 241 243 264 269 245 264 288 323 323
182 182 182 183 186 186 189 195 198 199 202 207 213 218 222 226 230 234 238 241 242 245 247 247 247 248 251 257 256 252 248 246 248 250 243 264 258 262 231 244 267 312 318
186 185 188 188 191 191 192 197 201 205 208 214 218 224 228 231 235 237 239 243 247 250 252 253 253 251 253 256 259 257 256 250 254 260 236 263 259 256 250 247 258 301 313
190 192 195 194 195 196 197 200 205 208 212 218 224 229 234 238 240 245 246 246 249 252 254 255 256 254 252 254 258 258 259 251 253 268 232 235 263 259 254 243 260 298 310
197 197 198 199 201 201 202 205 210 213 217 222 230 236 241 244 244 246 250 249 250 254 255 257 258 258 258 257 258 260 259 256 253 242 231 255 258 263 259 247 262 290 299
200 203 203 204 206 208 209 212 216 221 225 228 235 240 243 247 248 251 254 258 257 257 260 261 263 264 262 261 261 259 260 256 254 241 232 250 262 269 267 255 258 284 291
210 207 208 211 210 213 215 216 222 226 233 237 242 246 249 252 255 260 261 263 263 262 263 263 265 266 264 264 263 262 261 260 257 248 242 252 259 268 267 263 267 277 289
213 214 213 214 213 217 220 228 231 233 238 244 250 254 256 259 260 262 264 266 265 265 268 267 268 268 269 267 266 264 263 263 260 254 245 254 264 267 267 277 281 275 278
227 223 224 222 216 215 219 218 231 230 251 251 257 255 255 260 263 264 262 263 264 267 270 267 266 265 266 266 264 264 264 264 263 257 250 260 261 275 271 278 283 288 285
215 224 231 227 217 216 220 219 242 231 243 245 252 251 258 260 264 264 263 264 266 266 267 266 265 265 266 266 264 265 267 269 262 255 247 263 267 270 274 273 278 281 277
219 229 228 219 215 217 220 232 237 242 243 245 250 253 254 255 260 262 264 268 270 268 270 269 267 265 266 266 264 266 273 274 254 256 245 265 265 268 276 269 276 271 270
250 241 235 230 232 231 231 231 220 228 240 240 246 251 251 252 259 263 266 268 273 270 271 269 268 267 266 267 263 265 268 271 258 249 259 266 269 272 276 270 262 261 261
244 235 236 238 237 227 228 226 229 232 238 240 243 247 250 254 260 265 268 270 272 272 275 276 271 268 262 263 258 258 263 266 259 253 265 265 265 266 269 269 258 259 265
254 243 245 244 237 242 243 237 236 239 237 241 240 243 248 254 260 265 269 268 269 275 276 278 272 267 259 252 250 252 264 269 257 258 263 264 270 271 268 268 260 259 267
277 261 255 251 248 247 243 246 244 241 241 241 239 243 245 251 255 263 265 261 266 271 274 278 274 265 257 258 245 235 230 236 253 261 260 263 272 270 264 262 266 259 266
310 280 267 262 260 258 251 248 247 239 239 242 243 244 247 264 258 265 265 261 264 264 267 278 277 262 251 255 245 239 237 251 254 273 233 233 277 294 282 264 259 263 268
290 299 277 259 260 256 254 259 250 242 239 245 243 248 258 256 259 266 263 260 267 262 262 270 265 252 253 251 246 244 239 244 253 250 276 284 290 292 276 267 267 271 273
282 288 291 280 256 259 253 255 251 244 239 237 241 249 256 253 257 262 266 262 257 255 256 260 256 251 252 251 247 246 244 243 243 248 260 272 274 279 277 275 273 274 265
Wind_Speed_850mb
67 62 58 54 47 48 50 50 48 47 45 42 40 38 35 32 30 27 25 23 21 20 19 17 15 13 10 7 4 3 3 4 4 5 6 6 6 6 7 4 6 6 9
80 72 65 60 54 51 54 56 54 51 48 46 45 43 41 38 35 34 31 28 25 23 24 22 21 20 18 15 11 8 5 2 2 3 5 5 9 9 3 1 3 3 5
83 78 71 67 62 57 56 57 56 54 51 48 46 43 42 40 37 34 32 29 27 25 24 22 21 21 20 18 15 12 10 8 8 9 7 11 9 9 5 4 6 2 1
89 83 76 72 68 62 58 58 56 55 54 52 47 44 41 38 34 32 30 27 25 22 21 20 20 19 18 17 15 14 12 14 15 13 10 7 3 3 6 8 7 6 1
92 88 78 76 71 64 59 56 54 54 52 50 47 44 39 35 32 29 27 25 22 19 17 16 17 16 16 15 13 13 14 17 11 9 10 12 11 11 10 12 11 7 3
92 88 82 78 74 67 61 57 53 51 50 48 45 41 37 33 29 27 24 22 19 16 13 13 14 13 12 11 10 11 14 15 11 6 8 6 9 10 13 13 14 10 9
96 89 82 78 75 71 63 58 53 48 47 45 43 39 35 31 28 26 23 20 18 15 13 10 7 7 7 8 7 7 9 12 13 10 8 2 1 7 5 8 10 10 9
93 87 83 77 75 72 66 59 54 49 44 41 40 37 34 32 29 28 25 23 21 19 17 14 13 10 9 8 7 6 7 11 16 18 18 11 5 6 4 7 10 14 10
91 87 82 78 76 73 66 59 55 50 45 42 40 38 37 35 34 32 30 28 27 26 24 22 20 17 16 15 12 9 8 10 16 24 24 18 11 7 8 11 12 16 16
94 86 81 80 78 76 70 62 57 52 45 43 41 41 39 39 38 38 38 36 33 32 31 29 27 24 24 24 21 15 12 14 15 20 20 22 20 12 8 12 13 17 16
90 84 79 79 77 74 70 65 59 54 48 45 44 43 44 45 45 46 44 41 40 39 38 36 35 32 32 32 31 23 20 16 18 21 16 11 18 18 12 13 15 16 18
84 82 79 77 76 73 70 68 64 58 54 51 49 48 49 48 49 49 48 46 46 45 45 44 43 41 41 39 39 32 29 24 25 20 16 15 20 19 19 18 16 17 19
89 84 85 80 76 73 71 69 65 63 57 53 51 52 53 51 54 55 55 53 52 51 53 51 51 51 48 46 44 41 37 32 29 24 22 19 19 24 25 22 18 18 19
80 86 83 82 78 76 74 70 66 63 61 57 55 57 58 57 59 59 59 56 56 56 57 55 57 57 54 52 51 48 47 40 36 30 28 26 24 28 29 23 21 19 20
72 79 81 85 82 80 74 68 67 64 61 63 60 62 63 63 63 59 60 60 59 58 60 57 59 62 60 57 57 54 54 48 42 38 33 31 29 29 25 22 22 20 19
64 69 76 78 75 69 67 60 61 61 59 60 66 67 66 67 64 61 59 58 57 56 55 57 56 60 59 57 58 57 58 56 49 39 34 30 32 28 27 27 28 26 22
63 66 68 68 69 63 55 50 62 51 51 51 51 62 58 58 60 59 56 52 47 45 45 49 50 54 55 52 55 54 54 55 51 40 40 32 31 36 33 33 38 36 30
59 58 64 68 68 73 77 55 52 67 69 51 49 54 50 54 57 56 57 54 47 43 43 46 45 48 49 46 46 47 47 46 45 36 37 32 31 35 37 41 40 40 33
69 59 62 71 77 85 79 80 80 82 71 57 61 61 57 54 56 57 61 57 51 47 48 48 47 44 48 42 38 41 39 38 35 30 35 32 36 36 36 42 48 40 34
50 64 65 74 76 85 86 75 76 77 71 75 71 72 65 56 56 57 61 60 58 55 55 54 50 47 49 40 36 42 40 35 32 32 30 38 37 42 33 36 39 34 33
58 62 60 77 78 78 86 87 92 85 79 84 80 83 68 57 55 57 63 60 62 62 59 58 54 54 52 39 41 45 43 42 38 36 34 36 38 35 36 37 37 35 32
54 56 64 63 66 74 99 94 100 97 90 91 92 85 69 59 53 60 64 64 63 63 63 63 59 59 57 42 45 47 43 41 45 39 40 43 45 43 44 42 41 38 33
39 59 75 78 70 72 80 88 114 110 105 106 100 84 71 59 60 64 66 64 65 62 58 56 56 59 58 41 42 42 17 24 25 32 35 35 38 31 31 38 44 37 34
44 51 62 77 83 73 68 77 85 115 123 108 87 71 59 54 57 60 63 62 60 59 55 46 47 51 48 46 43 53 58 40 17 15 14 15 24 33 26 32 35 33 35
47 44 53 59 75 78 73 64 81 107 115 95 67 57 54 59 57 57 58 60 59 52 48 45 43 43 41 42 46 49 56 59 51 45 40 31 27 23 24 28 34 39 41
56 50 45 54 63 66 72 70 72 87 100 81 67 58 57 60 58 52 55 58 55 43 42 41 36 37 37 38 45 45 46 45 49 47 44 44 30 25 25 32 36 38 35
Wind_Direction_850mb
172 163 159 155 155 147 143 144 144 142 143 146 147 148 148 143 139 139 137 136 135 128 120 119 119 115 115 122 140 160 204 239 229 224 227 205 119 78 55 39 44 42 86
166 164 162 159 156 150 145 142 141 141 142 141 141 141 141 139 138 135 133 130 124 120 113 110 108 105 105 108 114 119 130 164 165 147 177 158 134 122 106 32 346 3 94
167 165 164 164 160 157 150 147 144 145 144 144 143 143 143 142 141 137 135 132 127 123 118 116 113 107 105 106 107 112 116 121 123 130 132 136 125 113 96 346 354 292 46
167 166 167 167 165 162 158 154 153 152 151 150 151 151 150 149 148 146 143 140 139 136 131 128 120 115 112 111 112 111 113 126 130 128 117 138 85 86 43 5 329 353 217
171 167 167 170 170 167 165 162 161 160 160 158 158 160 160 160 160 159 159 157 154 149 143 140 131 130 127 126 126 130 138 144 146 132 115 121 96 50 34 5 344 302 269
173 170 167 172 172 173 172 170 169 169 170 168 169 171 172 173 175 177 177 175 171 170 166 164 149 143 136 137 143 143 151 162 175 159 136 123 109 69 46 30 11 336 260
175 172 171 173 175 177 178 177 177 177 180 178 181 184 186 190 194 197 198 197 194 195 197 199 188 167 163 167 170 159 161 192 201 216 229 225 130 104 50 350 359 349 308
175 174 174 176 179 180 183 183 185 185 187 191 192 195 200 206 212 217 218 220 220 221 221 225 228 224 226 224 210 192 195 212 232 234 235 258 259 220 221 287 323 335 318
179 179 177 179 182 183 188 189 191 193 195 199 205 208 212 217 222 227 233 233 235 236 237 236 241 241 245 248 242 237 234 232 236 247 241 243 264 269 245 264 288 323 323
182 182 182 183 186 186 189 195 198 199 202 207 213 218 222 226 230 234 238 241 242 245 247 247 247 248 251 257 256 252 248 246 248 250 243 264 258 262 231 244 267 312 318
186 185 188 188 191 191 192 197 201 205 208 214 218 224 228 231 235 237 239 243 247 250 252 253 253 251 253 256 259 257 256 250 254 260 236 263 259 256 250 247 258 301 313
190 192 195 194 195 196 197 200 205 208 212 218 224 229 234 238 240 245 246 246 249 252 254 255 256 254 252 254 258 258 259 251 253 268 232 235 263 259 254 243 260 298 310
197 197 198 199 201 201 202 205 210 213 217 222 230 236 241 244 244 246 250 249 250 254 255 257 258 258 258 257 258 260 259 256 253 242 231 255 258 263 259 247 262 290 299
200 203 203 204 206 208 209 212 216 221 225 228 235 240 243 247 248 251 254 258 257 257 260 261 263 264 262 261 261 259 260 256 254 241 232 250 262 269 267 255 258 284 291
210 207 208 211 210 213 215 216 222 226 233 237 242 246 249 252 255 260 261 263 263 262 263 263 265 266 264 264 263 262 261 260 257 248 242 252 259 268 267 263 267 277 289
213 214 213 214 213 217 220 228 231 233 238 244 250 254 256 259 260 262 264 266 265 265 268 267 268 268 269 267 266 264 263 263 260 254 245 254 264 267 267 277 281 275 278
227 223 224 222 216 215 219 218 231 230 251 251 257 255 255 260 263 264 262 263 264 267 270 267 266 265 266 266 264 264 264 264 263 257 250 260 261 275 271 278 283 288 285
215 224 231 227 217 216 220 219 242 231 243 245 252 251 258 260 264 264 263 264 266 266 267 266 265 265 266 266 264 265 267 269 262 255 247 263 267 270 274 273 278 281 277
219 229 228 219 215 217 220 232 237 242 243 245 250 253 254 255 260 262 264 268 270 268 270 269 267 265 266 266 264 266 273 274 254 256 245 265 265 268 276 269 276 271 270
250 241 235 230 232 231 231 231 220 228 240 240 246 251 251 252 259 263 266 268 273 270 271 269 268 267 266 267 263 265 268 271 258 249 259 266 269 272 276 270 262 261 261
244 235 236 238 237 227 228 226 229 232 238 240 243 247 250 254 260 265 268 270 272 272 275 276 271 268 262 263 258 258 263 266 259 253 265 265 265 266 269 269 258 259 265
254 243 245 244 237 242 243 237 236 239 237 241 240 243 248 254 260 265 269 268 269 275 276 278 272 267 259 252 250 252 264 269 257 258 263 264 270 271 268 268 260 259 267
277 261 255 251 248 247 243 246 244 241 241 241 239 243 245 251 255 263 265 261 266 271 274 278 274 265 257 258 245 235 230 236 253 261 260 263 272 270 264 262 266 259 266
310 280 267 262 260 258 251 248 247 239 239 242 243 244 247 264 258 265 265 261 264 264 267 278 277 262 251 255 245 239 237 251 254 273 233 233 277 294 282 264 259 263 268
290 299 277 259 260 256 254 259 250 242 239 245 243 248 258 256 259 266 263 260 267 262 262 270 265 252 253 251 246 244 239 244 253 250 276 284 290 292 276 267 267 271 273
282 288 291 280 256 259 253 255 251 244 239 237 241 249 256 253 257 262 266 262 257 255 256 260 256 251 252 251 247 246 244 243 243 248 260 272 274 279 277 275 273 274 265